Pearl, MS

2:48 AM CST on February 14, 2016 (GMT -0600)
Jackson-Evers International

Weather History for KJAN - September, 2013

Change the Weather History Date:

Saturday, September 14, 2013

  Actual Average Record
Temperature  
Mean Temperature 74 °F 76 °F  
Max Temperature 87 °F 87 °F 102 °F (1921)
Min Temperature 60 °F 65 °F 42 °F (1902)
Degree Days  
Heating Degree Days 0 0  
Month to date heating degree days 0 0  
Since 1 July heating degree days 0 0  
Cooling Degree Days 9 11  
Month to date cooling degree days 249 185  
Year to date cooling degree days 2013 1984  
Growing Degree Days 25 (Base 50)    
Moisture  
Dew Point 56 °F    
Average Humidity 57    
Maximum Humidity 84    
Minimum Humidity 30    
Precipitation  
Precipitation 0.00 in 0.10 in 1.62 in (1962)
Month to date precipitation 0.27 1.40  
Year to date precipitation 43.93 38.68  
Sea Level Pressure  
Sea Level Pressure 29.96 in    
Wind  
Wind Speed 5 mph (NNE)    
Max Wind Speed 12 mph    
Max Gust Speed 21 mph    
Visibility 10 miles    
Events      
T = Trace of Precipitation, MM = Missing Value Source: NWS Daily Summary

Daily Weather History Graph

Daily Weather History Graph

Search for Another Location

Airport or City:

Trip Planner

Search our weather history database for the weather conditions in past years. The results will help you decide how hot, cold, wet, or windy it might be!

Date:

Astronomy

Sep. 14, 2013 Rise Set
Actual Time 6:43 AM CDT 7:07 PM CDT
Civil Twilight 6:19 AM CDT 7:31 PM CDT
Nautical Twilight 5:50 AM CDT 8:00 PM CDT
Astronomical Twilight 5:20 AM CDT 8:29 PM CDT
Moon 3:36 PM CDT 1:29 AM CDT
Length of Visible Light 13h 12m
Length of Day
12h 23m
Waxing Gibbous, 72% of the Moon is Illuminated
Sep 14
Waxing Gibbous
Sep 19
Full
Sep 26
Last Quarter
Oct 4
New
Oct 11
First Quarter

Hourly Weather History & Observations

Time (CDT) Temp. Heat Index Dew Point Humidity Pressure Visibility Wind Dir Wind Speed Gust Speed Precip Events Conditions
12:54 AM 71.1 °F - 61.0 °F 70% 29.93 in 10.0 mi NNE 5.8 mph - N/A   Clear
1:54 AM 70.0 °F - 59.0 °F 68% 29.93 in 10.0 mi NE 8.1 mph - 0.01 in   Clear
2:54 AM 69.1 °F - 57.0 °F 65% 29.92 in 10.0 mi NNE 6.9 mph - N/A   Clear
3:54 AM 66.9 °F - 57.0 °F 70% 29.93 in 10.0 mi NNE 5.8 mph - N/A   Clear
4:54 AM 66.0 °F - 55.9 °F 70% 29.94 in 10.0 mi NE 5.8 mph - N/A   Clear
5:54 AM 64.9 °F - 55.9 °F 73% 29.95 in 10.0 mi NNE 4.6 mph - N/A   Clear
6:54 AM 63.0 °F - 55.9 °F 78% 29.97 in 10.0 mi NNE 5.8 mph - N/A   Clear
7:54 AM 66.0 °F - 55.9 °F 70% 29.98 in 10.0 mi NE 6.9 mph - N/A   Clear
8:54 AM 69.1 °F - 55.9 °F 63% 30.00 in 10.0 mi NE 9.2 mph - N/A   Clear
9:54 AM 73.0 °F - 55.9 °F 55% 30.01 in 10.0 mi NE 6.9 mph - N/A   Clear
10:54 AM 77.0 °F - 55.9 °F 48% 30.01 in 10.0 mi Variable 5.8 mph - N/A   Clear
11:54 AM 81.0 °F 80.8 °F 55.9 °F 42% 30.00 in 10.0 mi NE 6.9 mph - N/A   Clear
12:54 PM 82.9 °F 82.6 °F 57.9 °F 42% 29.99 in 10.0 mi North 8.1 mph - N/A   Clear
1:54 PM 84.9 °F 83.2 °F 53.1 °F 33% 29.97 in 10.0 mi NW 6.9 mph - N/A   Clear
2:54 PM 86.0 °F 84.5 °F 55.0 °F 35% 29.95 in 10.0 mi Variable 4.6 mph 20.7 mph N/A   Clear
3:54 PM 86.0 °F 84.2 °F 54.0 °F 33% 29.93 in 10.0 mi Variable 6.9 mph - N/A   Clear
4:54 PM 87.1 °F 84.9 °F 53.1 °F 31% 29.93 in 10.0 mi North 6.9 mph - N/A   Clear
5:54 PM 86.0 °F - 52.0 °F 31% 29.94 in 10.0 mi NNE 6.9 mph - N/A   Clear
6:54 PM 81.0 °F 80.5 °F 54.0 °F 39% 29.94 in 10.0 mi Calm Calm - N/A   Clear
7:54 PM 72.0 °F - 55.0 °F 55% 29.96 in 10.0 mi Calm Calm - N/A   Clear
8:54 PM 66.9 °F - 57.9 °F 73% 29.99 in 10.0 mi Calm Calm - N/A   Clear
9:54 PM 66.9 °F - 57.0 °F 70% 29.99 in 10.0 mi Calm Calm - N/A   Clear
10:54 PM 64.0 °F - 57.0 °F 78% 30.00 in 10.0 mi ENE 3.5 mph - N/A   Clear
11:54 PM 63.0 °F - 57.0 °F 81% 30.01 in 10.0 mi Calm Calm - N/A   Clear